User: anonymous   Login
Location: Vancouver
(49.2500°N, 123.1330°W)
Time: 02:45:53
(UTC-07:00)
Language:

JAS-1B - Orbit

View from above orbital plane
View from above orbital plane
View from above satellite
View from above satellite

Ground track
Ground track

The orbit data is extracted from the following two-line orbital elements,

1 20480U 90013C   16179.18420029 -.00000042  00000-0 -31761-4 0  9997
2 20480  99.0220  13.5350 0541005 115.5892 356.8384 12.83411559236187
Epoch (UTC): 27 June 2016 04:25:14
Eccentricity: 0.0541005
inclination: 99.0220°
perigee height: 911 km
apogee height: 1744 km
right ascension of ascending node: 13.5350°
argument of perigee: 115.5892°
revolutions per day: 12.83411559
mean anomaly at epoch: 356.8384°
orbit number at epoch: 23618

The dashed part of the orbit path shows where the satellite is in the earth's shadow,  

DLR